OPS 4682 DEB, 26732

Orbit data source: Space-Track

OPS 4682 DEB, 26732 is space debris in LEO originally from a launch on Sat, 03 Apr 1965 UTC launched from the Air Force Western Test Range (AFWTR). Debris objects in space refer to the collection of defunct objects orbiting the Earth. Examples of debris include non-operational satellites, rocket bodies, and fragments generated from explosions, collisions, or faulty payload assembly.

Loading next visibility...
Identifier
26732, 1965-027BF
Orbit
LEO
Country
Flag of USUS
Related business
Manufacturer
Unknown
Mission
Spacecraft
Bus & Motor
Unknown
Mass
Unknown
Launch date (UTC)
1965-04-03 (61 years ago)
Launch vehicle
Unknown
Launch site
Air Force Western Test Range (AFWTR)
Object type
Payload
Rocket body
Debris
Shape & HBR
Unknown shape, 0.1 m
Radar Cross Section
Small (<0.1 m²)

Expand to show TLE details & history
Last TLE update: 2 days ago

TLE from 2 days ago
0 OPS 4682 DEB
1 26732U 65027BF  25348.04994546  .00000710  00000-0  24590-2 0  9993
2 26732  90.2496   6.8623 0061026 310.1047  76.7423 12.95858571471190
Epoch: 2025-12-14T01:11Z
TLE epoch observation values (Epoch: 2025-12-14T01:11:55.287Z)
Latitude
27.56487°
Longitude
-94.21614°
Altitude
1,271.284 km
Speed
7.227 km/s
True Right ascension
00h 26m 55s
True Declination
27° 26' 01"
Sunlit
Object was in daylight at epoch
Visualization orbit readout
Latitude
Unknown
Longitude
Unknown
Altitude
Unknown
Speed
Unknown
Apparent Right ascension
Unknown
Apparent Declination
Unknown
Sunlit
N/A
Visualization observer readout
Local Sidereal Time
16:53:05
Azimuth
Unknown
Elevation
Unknown
Doppler factor
Unknown
Orbital elements
Apogee altitude
1,322.196 km
Perigee altitude
1,228.782 km
Semi-major axis
7,653.626 km
Eccentricity
0.0061
Inclination
90.2496°
RAAN
6.8623°
Arg. of periapsis
310.1047°
True anomaly
77.42415°
Mean anomaly
76.7423°
Eccentric anomaly
77.08311°
Mean motion
3.24147 °/min
Orbital period
111.06 mins
BSTAR
0.002459
Loading maneuver chart data...
Computing Atmospheric mass density...
Loading historical data...
Loading historical data...
Loading historical data...
Loading historical data...
Loading historical data...
Loading historical data...
Loading historical data...

Documentation

Showing up to 5 results
|